Change the Weather History Date:

Saturday, September 21, 2013

  Actual Average (KCDC) Record (KCDC)
Temperature  
Mean Temperature 64 °F 60 °F  
Max Temperature 84 °F 77 °F 88 °F (1966)
Min Temperature 45 °F 43 °F 28 °F (1965)
Degree Days  
Heating Degree Days 0 6  
Month to date heating degree days 65  
Since 1 July heating degree days 74  
Cooling Degree Days 0 0  
Month to date cooling degree days 36  
Year to date cooling degree days 585  
Growing Degree Days 14 (Base 50)    
Moisture  
Dew Point 41 °F    
Average Humidity 46    
Maximum Humidity 79    
Minimum Humidity 20    
Precipitation  
Precipitation 0.00 in 0.02 in 0.20 in (2014)
Month to date precipitation 0.44  
Year to date precipitation 7.98  
Sea Level Pressure  
Sea Level Pressure 29.95 in    
Wind  
Wind Speed 7 mph (SSE)    
Max Wind Speed 23 mph    
Max Gust Speed 34 mph    
Visibility 10 miles    
Events Thunderstorm    
T = Trace of Precipitation, MM = Missing Value Source: NWS Daily Summary

Daily Weather History Graph

Daily Weather History Graph

Search for Another Location

Airport or City:

Trip Planner

Search our weather history database for the weather conditions in past years. The results will help you decide how hot, cold, wet, or windy it might be!

Date:

Astronomy

Sep. 21, 2013 Rise Set
Actual Time 6:19 AM MST 6:29 PM MST
Civil Twilight 5:53 AM MST 6:55 PM MST
Nautical Twilight 5:23 AM MST 7:26 PM MST
Astronomical Twilight 4:52 AM MST 7:56 PM MST
Moon 7:48 PM MST (9/21) 8:37 AM MST (9/21)
Length of Visible Light 13h 02m
Length of Day
12h 10m
Waning Gibbous, 94% of the Moon is Illuminated
Sep 21
Waning Gibbous
Sep 26
Last Quarter
Oct 4
New
Oct 11
First Quarter
Oct 18
Full

Hourly Weather History & Observations

Time (MST) Temp. Windchill Dew Point Humidity Pressure Visibility Wind Dir Wind Speed Gust Speed Precip Events Conditions
12:15 AM 50.5 °F - 38.7 °F 64% 30.04 in 10.0 mi SSE 3.5 mph - N/A   Clear
12:35 AM 50.5 °F - 38.1 °F 62% 30.04 in 10.0 mi SSE 5.8 mph - N/A   Clear
12:55 AM 49.5 °F - 37.8 °F 64% 30.04 in 10.0 mi SSE 4.6 mph - N/A   Clear
1:15 AM 48.2 °F - 37.8 °F 67% 30.04 in 10.0 mi SSE 4.6 mph - N/A   Clear
1:35 AM 48.0 °F - 38.5 °F 70% 30.04 in 10.0 mi Calm Calm - N/A   Clear
1:55 AM 49.5 °F - 39.0 °F 67% 30.04 in 10.0 mi SE 3.5 mph - N/A   Clear
2:15 AM 47.3 °F - 38.3 °F 71% 30.03 in 10.0 mi SE 3.5 mph - N/A   Clear
2:35 AM 45.9 °F 42.3 °F 38.7 °F 76% 30.03 in 10.0 mi SSE 6.9 mph - N/A   Clear
2:55 AM 45.7 °F 44.4 °F 39.4 °F 79% 30.03 in 10.0 mi East 3.5 mph - N/A   Clear
3:15 AM 47.7 °F - 39.6 °F 73% 30.03 in 10.0 mi SSE 3.5 mph - N/A   Clear
3:35 AM 48.4 °F - 39.0 °F 70% 30.03 in 10.0 mi Calm Calm - N/A   Clear
3:55 AM 48.4 °F - 39.2 °F 71% 30.03 in 10.0 mi Calm Calm - N/A   Clear
4:15 AM 47.5 °F - 39.2 °F 73% 30.03 in 10.0 mi Calm Calm - N/A   Clear
4:35 AM 48.0 °F - 39.0 °F 71% 30.03 in 10.0 mi Calm Calm - N/A   Clear
4:55 AM 47.3 °F - 39.0 °F 73% 30.02 in 10.0 mi ESE 3.5 mph - N/A   Clear
5:15 AM 46.9 °F - 39.7 °F 76% 30.02 in 10.0 mi Calm Calm - N/A   Clear
5:35 AM 47.5 °F - 39.6 °F 74% 30.03 in 10.0 mi SSE 3.5 mph - N/A   Clear
5:55 AM 47.5 °F - 39.6 °F 74% 30.03 in 10.0 mi ESE 4.6 mph - N/A   Clear
6:15 AM 47.8 °F - 40.1 °F 75% 30.03 in 10.0 mi Calm Calm - N/A   Clear
6:35 AM 51.3 °F - 39.6 °F 64% 30.04 in 10.0 mi South 3.5 mph - N/A   Clear
6:55 AM 51.8 °F - 39.7 °F 63% 30.04 in 10.0 mi Calm Calm - N/A   Clear
7:15 AM 53.4 °F - 41.9 °F 65% 30.05 in 10.0 mi Calm Calm - N/A   Clear
7:35 AM 55.9 °F - 43.2 °F 62% 30.05 in 10.0 mi ESE 3.5 mph - N/A   Clear
7:55 AM 60.4 °F - 44.1 °F 55% 30.04 in 10.0 mi SE 4.6 mph - N/A   Clear
8:15 AM 66.9 °F - 44.8 °F 45% 30.05 in 10.0 mi SE 11.5 mph 16.1 mph N/A   Clear
8:35 AM 71.2 °F - 42.3 °F 35% 30.05 in 10.0 mi SE 11.5 mph - N/A   Clear
8:55 AM 72.1 °F - 42.6 °F 34% 30.05 in 10.0 mi SE 10.4 mph - N/A   Clear
9:15 AM 73.6 °F - 43.5 °F 34% 30.05 in 10.0 mi SE 10.4 mph - N/A   Clear
9:35 AM 74.7 °F - 44.1 °F 33% 30.05 in 10.0 mi SE 8.1 mph - N/A   Clear
9:55 AM 75.9 °F - 45.1 °F 33% 30.04 in 10.0 mi SE 10.4 mph - N/A   Clear
10:15 AM 77.7 °F - 46.6 °F 33% 30.03 in 10.0 mi SE 11.5 mph 16.1 mph N/A   Clear
10:35 AM 78.8 °F - 47.5 °F 33% 30.02 in 10.0 mi SE 11.5 mph 21.9 mph N/A   Clear
10:55 AM 79.7 °F - 47.8 °F 33% 30.01 in 10.0 mi SSE 12.7 mph 19.6 mph N/A   Mostly Cloudy
11:15 AM 81.7 °F - 46.8 °F 29% 30.01 in 10.0 mi South 19.6 mph 28.8 mph N/A   Scattered Clouds
11:35 AM 82.0 °F - 44.6 °F 27% 30.01 in 10.0 mi SSW 19.6 mph 26.5 mph N/A   Scattered Clouds
11:55 AM 83.1 °F - 43.2 °F 24% 30.00 in 10.0 mi SSW 17.3 mph 23.0 mph N/A   Scattered Clouds
12:15 PM 83.8 °F - 42.4 °F 23% 29.99 in 10.0 mi South 23.0 mph 32.2 mph N/A   Scattered Clouds
12:35 PM 84.0 °F - 43.0 °F 24% 29.98 in 10.0 mi South 21.9 mph 33.4 mph N/A   Scattered Clouds
12:55 PM 84.2 °F - 44.8 °F 25% 29.97 in 10.0 mi SSW 18.4 mph 34.5 mph N/A   Mostly Cloudy
1:15 PM 83.7 °F - 45.0 °F 26% 29.96 in 10.0 mi South 17.3 mph 27.6 mph N/A Thunderstorm Mostly Cloudy
1:35 PM 83.3 °F - 45.1 °F 26% 29.94 in 10.0 mi South 15.0 mph 24.2 mph N/A   Mostly Cloudy
1:55 PM 83.7 °F - 44.4 °F 25% 29.94 in 10.0 mi SSW 20.7 mph 26.5 mph N/A   Mostly Cloudy
2:15 PM 82.8 °F - 44.2 °F 26% 29.93 in 10.0 mi SW 17.3 mph 25.3 mph N/A   Overcast
2:35 PM 82.9 °F - 44.1 °F 25% 29.92 in 10.0 mi SSW 18.4 mph 25.3 mph N/A   Mostly Cloudy
2:55 PM 84.2 °F - 42.8 °F 23% 29.91 in 10.0 mi SSW 17.3 mph 26.5 mph N/A   Mostly Cloudy
3:15 PM 84.4 °F - 42.4 °F 23% 29.90 in 10.0 mi SSW 16.1 mph 24.2 mph N/A   Mostly Cloudy
3:35 PM 82.8 °F - 41.7 °F 23% 29.90 in 10.0 mi SSW 17.3 mph 25.3 mph N/A   Mostly Cloudy
3:55 PM 82.9 °F - 41.0 °F 23% 29.89 in 10.0 mi SSW 15.0 mph 27.6 mph N/A   Mostly Cloudy
4:15 PM 83.1 °F - 40.5 °F 22% 29.88 in 10.0 mi SSW 12.7 mph 25.3 mph N/A   Mostly Cloudy
4:35 PM 82.2 °F - 39.9 °F 22% 29.87 in 10.0 mi SSW 13.8 mph 20.7 mph N/A   Scattered Clouds
4:55 PM 82.8 °F - 38.5 °F 21% 29.86 in 10.0 mi SSW 13.8 mph 24.2 mph N/A   Scattered Clouds
5:15 PM 82.9 °F - 37.2 °F 20% 29.86 in 10.0 mi SSW 16.1 mph 23.0 mph N/A   Scattered Clouds
5:35 PM 81.7 °F - 38.1 °F 21% 29.86 in 10.0 mi South 12.7 mph - N/A   Scattered Clouds
5:55 PM 80.4 °F - 35.8 °F 20% 29.85 in 10.0 mi SSW 10.4 mph - N/A   Clear
6:15 PM 78.8 °F - 34.5 °F 20% 29.84 in 10.0 mi SSW 13.8 mph 20.7 mph N/A   Clear
6:35 PM 76.6 °F - 34.9 °F 22% 29.83 in 10.0 mi SSW 11.5 mph - N/A   Clear
6:55 PM 74.3 °F - 35.8 °F 25% 29.83 in 10.0 mi SSW 8.1 mph - N/A   Clear
7:15 PM 70.0 °F - 37.4 °F 30% 29.84 in 10.0 mi South 5.8 mph - N/A   Clear
7:35 PM 66.7 °F - 38.7 °F 36% 29.84 in 10.0 mi SW 3.5 mph - N/A   Clear
7:55 PM 63.5 °F - 39.7 °F 42% 29.85 in 10.0 mi Calm Calm - N/A   Clear
8:15 PM 60.8 °F - 41.0 °F 48% 29.85 in 10.0 mi Calm Calm - N/A   Clear
8:35 PM 60.3 °F - 41.9 °F 51% 29.85 in 10.0 mi Calm Calm - N/A   Clear
8:55 PM 60.6 °F - 42.3 °F 51% 29.85 in 10.0 mi Calm Calm - N/A   Scattered Clouds
9:15 PM 61.9 °F - 41.4 °F 47% 29.84 in 10.0 mi South 5.8 mph - N/A   Scattered Clouds
9:35 PM 62.6 °F - 41.0 °F 45% 29.85 in 10.0 mi SSE 5.8 mph - N/A   Clear
9:55 PM 60.8 °F - 41.5 °F 49% 29.84 in 10.0 mi ESE 6.9 mph - N/A   Clear
10:15 PM 58.5 °F - 42.1 °F 55% 29.84 in 10.0 mi ESE 6.9 mph - N/A   Clear
10:35 PM 57.4 °F - 42.6 °F 58% 29.83 in 10.0 mi SE 6.9 mph - N/A   Clear
10:55 PM 56.8 °F - 43.0 °F 60% 29.82 in 10.0 mi ESE 9.2 mph - N/A   Clear
11:15 PM 57.9 °F - 43.2 °F 58% 29.82 in 10.0 mi SE 4.6 mph - N/A   Clear
11:35 PM 58.5 °F - 43.3 °F 57% 29.82 in 10.0 mi SSE 4.6 mph - N/A   Clear
11:55 PM 58.3 °F - 43.5 °F 58% 29.81 in 10.0 mi SSE 4.6 mph - N/A   Scattered Clouds